Simultaneous Nadir Overpasses (SNOs) Predictions

Prediction of SNOs between GOES-16 and FY3D Satellite Orbit:

Table of predicted SNOs for the next 14.0 days since TLE Epoch: 8/24/2024
Index Date Time (GOES-16) GOES-16 Lat,Lon FY3D Lat,Lon Distance(km) Time Diff (sec)
1 08/24/2024 19:47:05 -0.05, -75.20 -0.62, -77.69 283.26 80
2 08/25/2024 19:31:09 -0.05, -75.21 0.43, -73.18 231.60 80
3 08/27/2024 07:50:29 0.05, -75.22 0.81, -78.46 370.09 80
4 08/28/2024 07:34:33 0.04, -75.22 -0.25, -73.95 144.93 80
5 08/29/2024 19:54:02 -0.03, -75.23 -0.95, -79.27 460.84 80
6 08/30/2024 19:38:06 -0.03, -75.24 0.06, -74.76 54.76 80
7 09/02/2024 07:38:50 0.01, -75.28 0.08, -75.53 29.23 80
8 09/03/2024 07:20:13 0.01, -75.30 -0.94, -71.02 487.28 80
9 09/04/2024 19:42:23 -0.01, -75.33 -0.24, -76.34 116.17 80
10 09/05/2024 19:26:26 -0.01, -75.35 0.78, -71.83 400.88 80
